Louisville, KY

1:52 AM EDT on September 26, 2016 (GMT -0400)
Louisville International-Standiford

Weather History for KSDF - July, 2012

Change the Weather History Date:

Friday, July 13, 2012

  Actual Average Record
Temperature  
Mean Temperature 78 °F 80 °F  
Max Temperature 84 °F 89 °F 104 °F (1936)
Min Temperature 71 °F 70 °F 56 °F (1940)
Degree Days  
Heating Degree Days 0 0  
Month to date heating degree days 0 0  
Since 1 June heating degree days 7 5  
Since 1 July heating degree days 0 0  
Cooling Degree Days 13 14  
Month to date cooling degree days 270 182  
Year to date cooling degree days 977 680  
Since 1 June cooling degree days 622 506  
Growing Degree Days 28 (Base 50)    
Moisture  
Dew Point 68 °F    
Average Humidity 74    
Maximum Humidity 90    
Minimum Humidity 58    
Precipitation  
Precipitation T in 0.13 in 2.58 in (1987)
Month to date precipitation 0.19 1.70  
Year to date precipitation 24.30 25.36  
Snow  
Snow 0.00 in 0.00 in - ()
Month to date snowfall 0.0 0.0  
Since 1 June snowfall 0.0 0.0  
Since 1 July snowfall 0.0 0.0  
Snow Depth 0.00 in    
Sea Level Pressure  
Sea Level Pressure 30.07 in    
Wind  
Wind Speed 6 mph (ESE)    
Max Wind Speed 13 mph    
Max Gust Speed 17 mph    
Visibility 10 miles    
Events Rain    
T = Trace of Precipitation, MM = Missing Value Source: NWS Daily Summary

Daily Weather History Graph

Daily Weather History Graph

Search for Another Location

Airport or City:

Trip Planner

Search our weather history database for the weather conditions in past years. The results will help you decide how hot, cold, wet, or windy it might be!

Date:

Astronomy

Jul. 13, 2012 Rise Set
Actual Time 6:30 AM EDT 9:06 PM EDT
Civil Twilight 6:00 AM EDT 9:37 PM EDT
Nautical Twilight 5:21 AM EDT 10:15 PM EDT
Astronomical Twilight 4:38 AM EDT 10:57 PM EDT
Moon 2:06 AM EDT (7/13) 4:35 PM EDT (7/13)
Length of Visible Light 15h 36m
Length of Day
14h 35m
Waning Crescent, 26% of the Moon is Illuminated
Jul 13
Waning Crescent
Jul 19
New
Jul 26
First Quarter
Aug 1
Full
Aug 9
Last Quarter

Hourly Weather History & Observations

Time (EDT) Temp. Heat Index Dew Point Humidity Pressure Visibility Wind Dir Wind Speed Gust Speed Precip Events Conditions
12:56 AM 73.0 °F - 68.0 °F 84% 30.08 in 10.0 mi ESE 3.5 mph - N/A   Mostly Cloudy
1:56 AM 73.0 °F - 68.0 °F 84% 30.07 in 10.0 mi ESE 4.6 mph - N/A   Mostly Cloudy
2:56 AM 72.0 °F - 68.0 °F 87% 30.06 in 10.0 mi East 4.6 mph - N/A   Overcast
3:56 AM 72.0 °F - 68.0 °F 87% 30.06 in 10.0 mi East 3.5 mph - N/A   Overcast
4:56 AM 72.0 °F - 66.9 °F 84% 30.05 in 10.0 mi East 4.6 mph - N/A   Overcast
5:56 AM 71.1 °F - 66.9 °F 87% 30.06 in 10.0 mi East 4.6 mph - N/A   Mostly Cloudy
6:56 AM 71.1 °F - 66.9 °F 87% 30.08 in 10.0 mi ENE 5.8 mph - N/A   Overcast
7:19 AM 71.6 °F - 66.2 °F 83% 30.09 in 10.0 mi ENE 6.9 mph - N/A   Mostly Cloudy
7:56 AM 72.0 °F - 66.9 °F 84% 30.08 in 10.0 mi ENE 5.8 mph - N/A   Overcast
8:40 AM 73.4 °F - 68.0 °F 83% 30.09 in 10.0 mi ESE 8.1 mph - N/A   Overcast
8:56 AM 73.9 °F - 68.0 °F 82% 30.09 in 10.0 mi East 6.9 mph - N/A   Overcast
9:50 AM 77.0 °F - 68.0 °F 74% 30.11 in 10.0 mi East 8.1 mph - N/A   Mostly Cloudy
9:56 AM 75.9 °F - 68.0 °F 76% 30.09 in 10.0 mi ESE 6.9 mph - N/A   Overcast
10:35 AM 78.8 °F - 68.0 °F 69% 30.10 in 10.0 mi East 6.9 mph - N/A   Overcast
10:56 AM 77.0 °F - 68.0 °F 74% 30.09 in 10.0 mi ESE 10.4 mph - N/A   Overcast
11:43 AM 78.8 °F - 68.0 °F 69% 30.10 in 10.0 mi East 9.2 mph - N/A   Overcast
11:56 AM 79.0 °F - 68.0 °F 69% 30.09 in 10.0 mi East 6.9 mph - N/A   Overcast
12:56 PM 81.0 °F 83.3 °F 66.9 °F 62% 30.09 in 10.0 mi ENE 5.8 mph - N/A   Mostly Cloudy
1:15 PM 80.6 °F 82.7 °F 66.2 °F 61% 30.10 in 10.0 mi East 9.2 mph - N/A   Overcast
1:33 PM 80.6 °F 83.2 °F 68.0 °F 65% 30.09 in 10.0 mi SE 8.1 mph - N/A   Overcast
1:56 PM 81.0 °F 83.3 °F 66.9 °F 62% 30.08 in 10.0 mi East 10.4 mph - N/A   Overcast
2:56 PM 80.1 °F 82.1 °F 66.0 °F 62% 30.07 in 10.0 mi ESE 6.9 mph - N/A   Overcast
3:56 PM 80.1 °F 82.3 °F 66.9 °F 64% 30.06 in 10.0 mi ESE 4.6 mph - N/A   Overcast
4:56 PM 82.9 °F 85.0 °F 66.0 °F 56% 30.04 in 10.0 mi SE 6.9 mph - N/A   Overcast
5:56 PM 82.9 °F 85.4 °F 66.9 °F 58% 30.02 in 10.0 mi SE 8.1 mph - N/A   Overcast
6:56 PM 82.0 °F 84.9 °F 68.0 °F 62% 30.02 in 10.0 mi SSE 9.2 mph - N/A   Overcast
7:56 PM 80.1 °F 82.7 °F 68.0 °F 67% 30.03 in 10.0 mi SSE 6.9 mph - N/A   Mostly Cloudy
8:56 PM 79.0 °F - 68.0 °F 69% 30.05 in 10.0 mi South 3.5 mph - N/A   Overcast
9:56 PM 78.1 °F - 69.1 °F 74% 30.05 in 10.0 mi SSE 5.8 mph - N/A   Overcast
10:56 PM 78.1 °F - 70.0 °F 76% 30.06 in 10.0 mi SSE 5.8 mph - N/A   Mostly Cloudy
11:56 PM 77.0 °F - 70.0 °F 79% 30.07 in 10.0 mi SSE 5.8 mph - 0.00 in Rain Light Rain